Chicago Executive, IL

8:00 PM CDT on April 30, 2017 (GMT -0500)
Chicago Executive

Weather History for KPWK - March, 2014

Change the Weather History Date:

Wednesday, March 19, 2014

  Actual Average Record
Temperature  
Mean Temperature 40 °F 39 °F  
Max Temperature 46 °F 47 °F 78 °F (2012)
Min Temperature 34 °F 30 °F 16 °F (2013)
Degree Days  
Heating Degree Days 25 26  
Month to date heating degree days 706 558  
Since 1 July heating degree days 6065 5296  
Cooling Degree Days 0 0  
Month to date cooling degree days 0 0  
Year to date cooling degree days 0 0  
Moisture  
Dew Point 35 °F    
Average Humidity 81    
Maximum Humidity 93    
Minimum Humidity 64    
Precipitation  
Precipitation 0.19 in 0.07 in 0.22 in (2003)
Month to date precipitation 0.29 1.24  
Year to date precipitation 2.42 3.82  
Sea Level Pressure  
Sea Level Pressure 29.73 in    
Wind  
Wind Speed 12 mph (WSW)    
Max Wind Speed 22 mph    
Max Gust Speed 30 mph    
Visibility 7 miles    
Events Rain    
T = Trace of Precipitation, MM = Missing Value Source: NWS Daily Summary

Daily Weather History Graph

Daily Weather History Graph

Search for Another Location

Airport or City:

Trip Planner

Search our weather history database for the weather conditions in past years. The results will help you decide how hot, cold, wet, or windy it might be!

Date:

Astronomy

Mar. 19, 2014 Rise Set
Actual Time 6:56 AM CDT 7:02 PM CDT
Civil Twilight 6:28 AM CDT 7:30 PM CDT
Nautical Twilight 5:56 AM CDT 8:03 PM CDT
Astronomical Twilight 5:22 AM CDT 8:36 PM CDT
Moon 10:24 PM CDT (3/19) 8:19 AM CDT (3/19)
Length of Visible Light 13h 01m
Length of Day
12h 06m
Waning Gibbous, 91% of the Moon is Illuminated
Mar 19
Waning Gibbous
Mar 23
Last Quarter
Mar 30
New
Apr 7
First Quarter
Apr 15
Full

Hourly Weather History & Observations

Time (CDT) Temp. Windchill Dew Point Humidity Pressure Visibility Wind Dir Wind Speed Gust Speed Precip Events Conditions
12:52 AM 41.0 °F 38.0 °F 35.1 °F 79% 29.69 in 8.0 mi East 4.6 mph - 0.00 in   Overcast
1:52 AM 44.1 °F 39.5 °F 37.0 °F 76% 29.66 in 9.0 mi South 8.1 mph - N/A   Overcast
2:09 AM 45.0 °F 40.6 °F 37.9 °F 76% 29.65 in 10.0 mi South 8.1 mph - N/A   Overcast
2:39 AM 46.0 °F 40.6 °F 39.0 °F 76% 29.63 in 10.0 mi South 11.5 mph - 0.00 in   Overcast
2:52 AM 45.0 °F 39.7 °F 39.0 °F 80% 29.64 in 10.0 mi South 10.4 mph - 0.00 in   Overcast
3:52 AM 44.1 °F 41.5 °F 39.9 °F 85% 29.62 in 8.0 mi SSW 4.6 mph - 0.01 in Rain Light Rain
4:03 AM 44.1 °F 40.8 °F 39.9 °F 85% 29.61 in 6.0 mi South 5.8 mph - 0.00 in Rain Light Rain
4:52 AM 43.0 °F 40.3 °F 41.0 °F 93% 29.60 in 6.0 mi South 4.6 mph - 0.01 in Rain Light Rain
5:07 AM 42.1 °F 38.4 °F 39.9 °F 92% 29.58 in 5.0 mi SSE 5.8 mph - 0.01 in   Overcast
5:26 AM 43.0 °F 39.5 °F 39.9 °F 89% 29.58 in 5.0 mi South 5.8 mph - 0.01 in Rain Light Rain
5:52 AM 43.0 °F 38.8 °F 39.9 °F 89% 29.59 in 4.0 mi SSE 6.9 mph - 0.01 in   Overcast
6:00 AM 43.0 °F 38.8 °F 41.0 °F 93% 29.58 in 5.0 mi South 6.9 mph - 0.00 in   Overcast
6:37 AM 44.1 °F 39.5 °F 41.0 °F 89% 29.58 in 5.0 mi South 8.1 mph - 0.01 in Rain Light Rain
6:52 AM 44.1 °F 39.5 °F 41.0 °F 89% 29.59 in 4.0 mi South 8.1 mph - 0.03 in Rain Light Rain
7:52 AM 44.1 °F 40.8 °F 42.1 °F 93% 29.59 in 1.5 mi SSW 5.8 mph - 0.06 in Rain Light Rain
8:52 AM 45.0 °F 41.8 °F 42.1 °F 90% 29.59 in 2.5 mi WSW 5.8 mph - 0.05 in Rain Light Rain
9:52 AM 46.0 °F 41.9 °F 42.1 °F 86% 29.60 in 8.0 mi West 8.1 mph - 0.01 in   Overcast
10:52 AM 45.0 °F 38.9 °F 41.0 °F 86% 29.62 in 8.0 mi NW 12.7 mph - 0.01 in   Overcast
11:52 AM 41.0 °F 35.2 °F 37.9 °F 89% 29.67 in 5.0 mi WNW 9.2 mph - 0.00 in Rain Light Rain
12:24 PM 39.0 °F 30.3 °F 35.1 °F 86% 29.67 in 6.0 mi NW 16.1 mph 24.2 mph 0.00 in   Overcast
12:52 PM 39.9 °F 31.8 °F 35.1 °F 83% 29.70 in 6.0 mi WNW 15.0 mph - 0.00 in   Haze
1:47 PM 39.2 °F 30.2 °F 33.8 °F 81% 29.72 in 7.0 mi WNW 17.3 mph 23.0 mph N/A   Overcast
1:52 PM 39.0 °F 30.3 °F 34.0 °F 82% 29.73 in 8.0 mi WNW 16.1 mph - N/A   Overcast
2:52 PM 39.0 °F 31.4 °F 33.1 °F 79% 29.77 in 9.0 mi WNW 12.7 mph 25.3 mph N/A   Overcast
3:52 PM 39.9 °F 31.8 °F 33.1 °F 77% 29.80 in 8.0 mi WNW 15.0 mph - N/A   Overcast
4:52 PM 39.9 °F 32.1 °F 33.1 °F 77% 29.83 in 9.0 mi West 13.8 mph 24.2 mph N/A   Overcast
5:52 PM 37.9 °F 28.5 °F 32.0 °F 79% 29.87 in 6.0 mi West 17.3 mph 24.2 mph N/A   Haze
6:52 PM 37.0 °F 26.7 °F 30.0 °F 76% 29.90 in 7.0 mi WNW 19.6 mph 27.6 mph N/A   Overcast
7:52 PM 36.0 °F 25.6 °F 28.0 °F 73% 29.92 in 10.0 mi WNW 18.4 mph 24.2 mph N/A   Overcast
8:00 PM 36.0 °F 28.0 °F 28.0 °F 73% 29.91 in 10.0 mi WNW 11.5 mph 20.7 mph N/A   Overcast
8:52 PM 36.0 °F 26.7 °F 27.0 °F 70% 29.94 in 10.0 mi West 15.0 mph 23.0 mph N/A   Overcast
9:52 PM 35.1 °F 25.9 °F 27.0 °F 72% 29.97 in 10.0 mi WNW 13.8 mph - N/A   Overcast
10:52 PM 35.1 °F 26.4 °F 25.0 °F 67% 29.99 in 10.0 mi WNW 12.7 mph - N/A   Overcast
11:15 PM 35.1 °F 25.5 °F 24.1 °F 64% 29.98 in 10.0 mi WNW 15.0 mph 23.0 mph N/A   Overcast
11:52 PM 34.0 °F 24.6 °F 23.0 °F 64% 30.01 in 10.0 mi WNW 13.8 mph 26.5 mph N/A   Overcast